Location: Sigmaringen
(48.0900°N, 9.2120°E)
Time: 11:47:31
(UTC+01:00)

ISS - Pass Details

Date: 10 February 2018
Orbit: 403 x 407 km, 51.6° (Epoch: 22 February)

Event Time Altitude Azimuth Distance (km) Brightness Sun altitude
Rises 18:39:34 0° 292° (WNW) 2,322 1.1 -10.9°
Reaches altitude 10° 18:41:40 10° 288° (WNW) 1,460 0.1 -11.2°
Maximum altitude 18:44:53 55° 210° (SSW) 491 -3.2 -11.7°
Enters shadow 18:47:58 11° 132° (SE) 1,409 -1.5 -12.3°
